Weather History for Cozumel, Mexico

Change the Weather History Date:

Thursday, April 26, 2012

  Actual Average Record
Temperature  
Mean Temperature 68 °F -  
Max Temperature 78 °F 86 °F 91 °F (2003)
Min Temperature 59 °F 74 °F 59 °F (2012)
Cooling Degree Days 4    
Growing Degree Days 18 (Base 50)    
Moisture  
Dew Point 59 °F    
Average Humidity 69    
Maximum Humidity 88    
Minimum Humidity 51    
Precipitation  
Precipitation 0.00 in - - ()
Sea Level Pressure  
Sea Level Pressure 30.02 in    
Wind  
Wind Speed 4 mph ()    
Max Wind Speed 17 mph    
Max Gust Speed 17 mph    
Visibility 7.0 miles    
Events      
Averages and records for this station are not official NWS values.
T = Trace of Precipitation, MM = Missing Value Source: Averaged Metar Reports

Daily Weather History Graph

Daily Weather History Graph

Search for Another Location

Airport:

Trip Planner

Search our weather history database for the weather conditions in past years. The results will help you decide how hot, cold, wet, or windy it might be!

Date:

Astronomy

Apr. 26, 2012 Rise Set
Actual Time 6:20 AM CDT 7:10 PM CDT
Civil Twilight 5:57 AM CDT 7:33 PM CDT
Nautical Twilight 5:30 AM CDT 8:00 PM CDT
Astronomical Twilight 5:03 AM CDT 8:27 PM CDT
Moon 10:15 AM CDT (4/26) 11:45 PM CDT (4/26)
Length of Visible Light 13h 35m
Length of Day
12h 49m
Waxing Crescent, 24% of the Moon is Illuminated
Apr 26
Waxing Crescent
Apr 29
First Quarter
May 5
Full
May 12
Last Quarter
May 20
New

Hourly Weather History & Observations

Time (CDT) Temp. Dew Point Humidity Pressure Visibility Wind Dir Wind Speed Gust Speed Precip Events Conditions
12:40 AM 64.4 °F 57.2 °F 77% 30.02 in 7.0 mi Calm Calm - N/A   Clear
1:48 AM 62.6 °F 57.2 °F 82% 30.03 in 7.0 mi Calm Calm - N/A   Partly Cloudy
2:46 AM 62.6 °F 57.2 °F 82% 30.02 in 7.0 mi Calm Calm - N/A   Partly Cloudy
3:40 AM 60.8 °F 55.4 °F 82% 30.04 in 7.0 mi Calm Calm - N/A   Partly Cloudy
4:46 AM 60.8 °F 55.4 °F 82% 30.01 in 7.0 mi ESE 4.6 mph - N/A   Scattered Clouds
5:44 AM 59.0 °F 55.4 °F 88% 30.02 in 7.0 mi Calm Calm - N/A   Partly Cloudy
6:42 AM 59.0 °F 53.6 °F 82% 30.01 in 7.0 mi Calm Calm - N/A   Clear
7:42 AM 68.0 °F 60.8 °F 78% 30.05 in 7.0 mi Calm Calm - N/A   Clear
8:40 AM 75.2 °F 59.0 °F 57% 30.06 in 7.0 mi East 8.1 mph - N/A   Clear
9:40 AM 77.0 °F 60.8 °F 57% 30.09 in 7.0 mi East 4.6 mph - N/A   Partly Cloudy
10:52 AM 77.0 °F 60.8 °F 57% 30.06 in 7.0 mi East 5.8 mph 17.3 mph N/A   Scattered Clouds
11:50 AM 75.2 °F 60.8 °F 61% 30.05 in 7.0 mi ENE 13.8 mph - N/A   Mostly Cloudy
12:40 PM 78.8 °F 60.8 °F 54% 30.00 in 7.0 mi NNE 17.3 mph - N/A   Mostly Cloudy
1:41 PM 78.8 °F 60.8 °F 54% 30.02 in 8.0 mi ENE 16.1 mph - N/A   Mostly Cloudy
2:45 PM 78.8 °F 59.0 °F 51% 30.01 in 7.0 mi ENE 11.5 mph - N/A   Scattered Clouds
3:47 PM 78.8 °F 59.0 °F 51% 30.01 in 7.0 mi ENE 11.5 mph - N/A   Scattered Clouds
4:44 PM 78.8 °F 59.0 °F 51% 29.98 in 7.0 mi East 11.5 mph - N/A   Scattered Clouds
5:42 PM 77.0 °F 60.8 °F 57% 29.98 in 7.0 mi East 11.5 mph - N/A   Scattered Clouds
6:49 PM 75.2 °F 60.8 °F 61% 29.96 in 7.0 mi East 6.9 mph - N/A   Scattered Clouds
7:40 PM 71.6 °F 60.8 °F 69% 29.99 in 7.0 mi East 4.6 mph - N/A   Clear
8:44 PM 69.8 °F 60.8 °F 73% 30.00 in 7.0 mi East 5.8 mph - N/A   Clear
9:41 PM 68.0 °F 60.8 °F 78% 30.04 in 7.0 mi East 3.5 mph - N/A   Clear
10:40 PM 66.2 °F 59.0 °F 78% 30.02 in 7.0 mi Calm Calm - N/A   Clear
11:40 PM 64.4 °F 59.0 °F 83% 30.01 in 7.0 mi Calm Calm - N/A   Clear